This is the latest recevied weather packets stored in our database for station/object KG0HG. If no packets are shown the sender has not sent any weather packets the latest 10 day(s).
| Time | Temp. | Humidity | Pressure | Rain* | Wind** | Luminosity | Snow |
|---|---|---|---|---|---|---|---|
| 1778030723 | 10° C | 93% | 1012.1 hPa | 0 mm | - | 0 W/m² | - |
| 1778030420 | 10° C | 93% | 1012.4 hPa | 0 mm | - | 0 W/m² | - |
| 1778030118 | 10° C | 92% | 1012.2 hPa | 0 mm | - | 0 W/m² | - |
| 1778029814 | 10° C | 92% | 1012.1 hPa | 0 mm | - | 0 W/m² | - |
| 1778029508 | 10° C | 91% | 1012.3 hPa | 0 mm | - | 0 W/m² | - |
| 1778029204 | 10° C | 91% | 1012.2 hPa | 0 mm | - | 0 W/m² | - |
| 1778028901 | 10° C | 90% | 1012.2 hPa | 0 mm | - | 1 W/m² | - |
| 1778028596 | 10° C | 90% | 1012.1 hPa | 0 mm | - | 3 W/m² | - |
| 1778028295 | 10.56° C | 90% | 1012.3 hPa | 0 mm | - | 2 W/m² | - |
| 1778027990 | 10.56° C | 89% | 1012.4 hPa | 0 mm | - | 3 W/m² | - |
| 1778027687 | 10.56° C | 89% | 1012.4 hPa | 0 mm | - | 4 W/m² | - |
| 1778027383 | 10.56° C | 88% | 1012 hPa | 0 mm | - | 7 W/m² | - |
| 1778027079 | 10.56° C | 87% | 1012 hPa | 0 mm | - | 8 W/m² | - |
| 1778026775 | 10.56° C | 86% | 1012 hPa | 0 mm | - | 11 W/m² | - |
| 1778026472 | 10.56° C | 86% | 1011.6 hPa | 0 mm | - | 12 W/m² | - |
| 1778026169 | 10.56° C | 86% | 1011.9 hPa | 0 mm | - | 16 W/m² | - |
| 1778025867 | 10.56° C | 86% | 1011.7 hPa | 0 mm | - | 25 W/m² | - |
| 1778025564 | 10.56° C | 86% | 1011.5 hPa | 0 mm | - | 34 W/m² | - |
| 1778025262 | 10.56° C | 86% | 1011.4 hPa | 0 mm | - | 28 W/m² | - |
| 1778024958 | 10.56° C | 87% | 1012 hPa | 0 mm | - | 34 W/m² | - |
| 1778024656 | 10.56° C | 87% | 1011.9 hPa | 0 mm | - | 38 W/m² | - |
| 1778024352 | 10.56° C | 87% | 1011.6 hPa | 0 mm | - | 30 W/m² | - |
| 1778024050 | 10° C | 86% | 1012 hPa | 0 mm | - | 28 W/m² | - |
| 1778023748 | 10° C | 86% | 1012.3 hPa | 0 mm | - | 16 W/m² | - |
| 1778023446 | 10.56° C | 86% | 1011.9 hPa | 0 mm | - | 23 W/m² | - |
* Rain latest hour (hover to see other rain measurements)
** Current wind speed in m/s (hover to see current wind gust speed)